Meacham, OR

10:01 PM PDT on April 28, 2017 (GMT -0700)
Meacham

Weather History for KMEH - June, 2013

Change the Weather History Date:

Sunday, June 16, 2013

  Actual Average Record
Temperature  
Mean Temperature 62 °F -  
Max Temperature 79 °F 65 °F 80 °F (2015)
Min Temperature 45 °F 35 °F 28 °F (2004)
Degree Days  
Heating Degree Days 4    
Growing Degree Days 12 (Base 50)    
Moisture  
Dew Point 41 °F    
Average Humidity 50    
Maximum Humidity 86    
Minimum Humidity 25    
Precipitation  
Precipitation 0.00 in - - ()
Sea Level Pressure  
Sea Level Pressure 29.99 in    
Wind  
Wind Speed 1 mph (ENE)    
Max Wind Speed 5 mph    
Max Gust Speed -    
Visibility 10 miles    
Events      
Averages and records for this station are not official NWS values.
T = Trace of Precipitation, MM = Missing Value Source: NWS Daily Summary

Daily Weather History Graph

Daily Weather History Graph

Search for Another Location

Airport or City:

Trip Planner

Search our weather history database for the weather conditions in past years. The results will help you decide how hot, cold, wet, or windy it might be!

Date:

Astronomy

Jun. 16, 2013 Rise Set
Actual Time 5:04 AM PDT 8:44 PM PDT
Civil Twilight 4:26 AM PDT 9:22 PM PDT
Nautical Twilight 3:35 AM PDT 10:13 PM PDT
Astronomical Twilight 2:26 AM PDT 11:22 PM PDT
Moon 1:07 PM PDT (6/16) 12:31 AM PDT (6/16)
Length of Visible Light 16h 56m
Length of Day
15h 40m
Waxing Crescent, 51% of the Moon is Illuminated
Jun 16
Waxing Crescent
Jun 23
Full
Jun 29
Last Quarter
Jul 8
New
Jul 15
First Quarter

Hourly Weather History & Observations

Time (PDT) Temp. Dew Point Humidity Pressure Visibility Wind Dir Wind Speed Gust Speed Precip Events Conditions
12:56 AM 48.0 °F 42.1 °F 80% 29.97 in 10.0 mi Calm Calm - N/A   Clear
1:56 AM 46.9 °F 42.1 °F 83% 29.97 in 10.0 mi Calm Calm - N/A   Clear
2:56 AM 46.0 °F 41.0 °F 83% 29.98 in 10.0 mi Calm Calm - N/A   Clear
3:56 AM 45.0 °F 41.0 °F 86% 29.97 in 10.0 mi Calm Calm - N/A   Clear
4:56 AM 45.0 °F 41.0 °F 86% 29.97 in 10.0 mi Calm Calm - N/A   Clear
5:56 AM 45.0 °F 41.0 °F 86% 29.99 in 10.0 mi Calm Calm - N/A   Clear
6:56 AM 46.9 °F 43.0 °F 86% 30.01 in 10.0 mi Calm Calm - N/A   Clear
7:56 AM 59.0 °F 39.9 °F 49% 30.00 in 10.0 mi Calm Calm - N/A   Clear
8:56 AM 66.0 °F 42.1 °F 42% 29.99 in 10.0 mi Calm Calm - N/A   Clear
9:56 AM 71.1 °F 39.9 °F 32% 29.99 in 10.0 mi Calm Calm - N/A   Clear
10:56 AM 75.0 °F 41.0 °F 29% 29.98 in 10.0 mi Calm Calm - N/A   Clear
11:56 AM 75.9 °F 42.1 °F 30% 29.98 in 10.0 mi Variable 3.5 mph - N/A   Clear
12:56 PM 75.0 °F 42.1 °F 31% 29.98 in 10.0 mi Variable 4.6 mph - N/A   Clear
1:56 PM 77.0 °F 39.9 °F 26% 29.97 in 10.0 mi Variable 4.6 mph - N/A   Clear
2:56 PM 75.9 °F 42.1 °F 30% 29.98 in 10.0 mi Calm Calm - N/A   Clear
3:56 PM 75.0 °F 41.0 °F 29% 30.00 in 10.0 mi Calm Calm - N/A   Mostly Cloudy
4:56 PM 75.9 °F 37.9 °F 25% 29.97 in 10.0 mi ENE 4.6 mph - 0.00 in   Mostly Cloudy
5:56 PM 78.1 °F 39.0 °F 25% 29.95 in 10.0 mi Calm Calm - N/A   Clear
6:56 PM 73.9 °F 39.9 °F 29% 29.96 in 10.0 mi Calm Calm - N/A   Clear
7:56 PM 70.0 °F 43.0 °F 38% 29.97 in 10.0 mi Calm Calm - N/A   Clear
8:56 PM 68.0 °F 39.9 °F 36% 29.98 in 10.0 mi Variable 4.6 mph - N/A   Clear
9:56 PM 64.0 °F 43.0 °F 46% 30.01 in 10.0 mi Variable 3.5 mph - N/A   Clear
10:56 PM 57.9 °F 43.0 °F 58% 30.04 in 10.0 mi Calm Calm - N/A   Clear
11:56 PM 55.0 °F 44.1 °F 67% 30.06 in 10.0 mi Calm Calm - N/A   Clear